Year,Month,Day,Hour,Minute,Value (Times are PST for temperature in C)
2010,09,02,00,00,11.70
2010,09,02,00,01,11.70
2010,09,02,00,02,11.60
2010,09,02,00,03,11.60
2010,09,02,00,04,11.60
2010,09,02,00,05,11.60
2010,09,02,00,06,11.60
2010,09,02,00,07,11.60
2010,09,02,00,08,11.60
2010,09,02,00,09,11.60
2010,09,02,00,10,11.60
2010,09,02,00,11,11.70
2010,09,02,00,12,11.70
2010,09,02,00,13,11.70
2010,09,02,00,14,11.70
2010,09,02,00,15,11.70
2010,09,02,00,16,11.60
2010,09,02,00,17,11.60
2010,09,02,00,18,11.60
2010,09,02,00,19,11.60
2010,09,02,00,20,11.60
2010,09,02,00,21,11.50
2010,09,02,00,22,11.50
2010,09,02,00,23,11.50
2010,09,02,00,24,11.50
2010,09,02,00,25,11.50
2010,09,02,00,26,11.40
2010,09,02,00,27,11.40
2010,09,02,00,28,11.40
2010,09,02,00,29,11.40
2010,09,02,00,30,11.40
2010,09,02,00,31,11.40
2010,09,02,00,32,11.40
2010,09,02,00,33,11.40
2010,09,02,00,34,11.40
2010,09,02,00,35,11.30
2010,09,02,00,36,11.30
2010,09,02,00,37,11.30
2010,09,02,00,38,11.30
2010,09,02,00,39,11.30
2010,09,02,00,40,11.30
2010,09,02,00,41,11.30
2010,09,02,00,42,11.30
2010,09,02,00,43,11.30
2010,09,02,00,44,11.30
2010,09,02,00,45,11.30
2010,09,02,00,46,11.30
2010,09,02,00,47,11.30
2010,09,02,00,48,11.20
2010,09,02,00,49,11.20
2010,09,02,00,50,11.20
2010,09,02,00,51,11.20
2010,09,02,00,52,11.20
2010,09,02,00,53,11.20
2010,09,02,00,54,11.20
2010,09,02,00,55,11.10
2010,09,02,00,56,11.10
2010,09,02,00,57,11.10
2010,09,02,00,58,11.10
2010,09,02,00,59,11.10
2010,09,02,01,00,11.10
2010,09,02,01,01,11.00
2010,09,02,01,02,11.00
2010,09,02,01,03,11.00
2010,09,02,01,04,11.00
2010,09,02,01,05,11.00
2010,09,02,01,06,11.00
2010,09,02,01,07,10.90
2010,09,02,01,08,10.90
2010,09,02,01,09,10.90
2010,09,02,01,10,10.90
2010,09,02,01,11,10.90
2010,09,02,01,12,10.90
2010,09,02,01,13,10.90
2010,09,02,01,14,10.90
2010,09,02,01,15,10.90
2010,09,02,01,16,10.90
2010,09,02,01,17,10.80
2010,09,02,01,18,10.80
2010,09,02,01,19,10.80
2010,09,02,01,20,10.80
2010,09,02,01,21,10.80
2010,09,02,01,22,10.80
2010,09,02,01,23,10.70
2010,09,02,01,24,10.70
2010,09,02,01,25,10.70
2010,09,02,01,26,10.70
2010,09,02,01,27,10.70
2010,09,02,01,28,10.70
2010,09,02,01,29,10.70
2010,09,02,01,30,10.70
2010,09,02,01,31,10.70
2010,09,02,01,32,10.70
2010,09,02,01,33,10.70
2010,09,02,01,34,10.70
2010,09,02,01,35,10.70
2010,09,02,01,36,10.70
2010,09,02,01,37,10.70
2010,09,02,01,38,10.70
2010,09,02,01,39,10.70
2010,09,02,01,40,10.60
2010,09,02,01,41,10.60
2010,09,02,01,42,10.60
2010,09,02,01,43,10.60
2010,09,02,01,44,10.60
2010,09,02,01,45,10.60
2010,09,02,01,46,10.60
2010,09,02,01,47,10.60
2010,09,02,01,48,10.50
2010,09,02,01,49,10.50
2010,09,02,01,50,10.60
2010,09,02,01,51,10.60
2010,09,02,01,52,10.60
2010,09,02,01,53,10.60
2010,09,02,01,54,10.60
2010,09,02,01,55,10.60
2010,09,02,01,56,10.50
2010,09,02,01,57,10.60
2010,09,02,01,58,10.50
2010,09,02,01,59,10.50
2010,09,02,02,00,10.50
2010,09,02,02,01,10.50
2010,09,02,02,02,10.50
2010,09,02,02,03,10.50
2010,09,02,02,04,10.50
2010,09,02,02,05,10.50
2010,09,02,02,06,10.50
2010,09,02,02,07,10.40
2010,09,02,02,08,10.40
2010,09,02,02,09,10.40
2010,09,02,02,10,10.40
2010,09,02,02,11,10.40
2010,09,02,02,12,10.40
2010,09,02,02,13,10.40
2010,09,02,02,14,10.40
2010,09,02,02,15,10.40
2010,09,02,02,16,10.40
2010,09,02,02,17,10.40
2010,09,02,02,18,10.40
2010,09,02,02,19,10.40
2010,09,02,02,20,10.40
2010,09,02,02,21,10.40
2010,09,02,02,22,10.40
2010,09,02,02,23,10.30
2010,09,02,02,24,10.30
2010,09,02,02,25,10.30
2010,09,02,02,26,10.30
2010,09,02,02,27,10.30
2010,09,02,02,28,10.30
2010,09,02,02,29,10.30
2010,09,02,02,30,10.30
2010,09,02,02,31,10.30
2010,09,02,02,32,10.30
2010,09,02,02,33,10.30
2010,09,02,02,34,10.30
2010,09,02,02,35,10.20
2010,09,02,02,36,10.20
2010,09,02,02,37,10.20
2010,09,02,02,38,10.20
2010,09,02,02,39,10.20
2010,09,02,02,40,10.20
2010,09,02,02,41,10.20
2010,09,02,02,42,10.20
2010,09,02,02,43,10.20
2010,09,02,02,44,10.20
2010,09,02,02,45,10.20
2010,09,02,02,46,10.20
2010,09,02,02,47,10.20
2010,09,02,02,48,10.20
2010,09,02,02,49,10.10
2010,09,02,02,50,10.10
2010,09,02,02,51,10.00
2010,09,02,02,52,10.00
2010,09,02,02,53,10.00
2010,09,02,02,54,10.00
2010,09,02,02,55,10.00
2010,09,02,02,56,10.00
2010,09,02,02,57,10.00
2010,09,02,02,58,10.00
2010,09,02,02,59,10.00
2010,09,02,03,00,10.00
2010,09,02,03,01,10.00
2010,09,02,03,02,10.00
2010,09,02,03,03,10.00
2010,09,02,03,04,10.00
2010,09,02,03,05,10.00
2010,09,02,03,06,10.00
2010,09,02,03,07,10.00
2010,09,02,03,08,9.90
2010,09,02,03,09,9.90
2010,09,02,03,10,9.90
2010,09,02,03,11,9.90
2010,09,02,03,12,9.90
2010,09,02,03,13,9.80
2010,09,02,03,14,9.80
2010,09,02,03,15,9.80
2010,09,02,03,16,9.80
2010,09,02,03,17,9.80
2010,09,02,03,18,9.80
2010,09,02,03,19,9.80
2010,09,02,03,20,9.80
2010,09,02,03,21,9.80
2010,09,02,03,22,9.80
2010,09,02,03,23,9.80
2010,09,02,03,24,9.80
2010,09,02,03,25,9.80
2010,09,02,03,26,9.80
2010,09,02,03,27,9.80
2010,09,02,03,28,9.80
2010,09,02,03,29,9.80
2010,09,02,03,30,9.80
2010,09,02,03,31,9.80
2010,09,02,03,32,9.80
2010,09,02,03,33,9.80
2010,09,02,03,34,9.80
2010,09,02,03,35,9.80
2010,09,02,03,36,9.80
2010,09,02,03,37,9.70
2010,09,02,03,38,9.70
2010,09,02,03,39,9.70
2010,09,02,03,40,9.70
2010,09,02,03,41,9.70
2010,09,02,03,42,9.70
2010,09,02,03,43,9.70
2010,09,02,03,44,9.70
2010,09,02,03,45,9.70
2010,09,02,03,46,9.70
2010,09,02,03,47,9.70
2010,09,02,03,48,9.70
2010,09,02,03,49,9.70
2010,09,02,03,50,9.70
2010,09,02,03,51,9.70
2010,09,02,03,52,9.70
2010,09,02,03,53,9.70
2010,09,02,03,54,9.70
2010,09,02,03,55,9.70
2010,09,02,03,56,9.70
2010,09,02,03,57,9.70
2010,09,02,03,58,9.70
2010,09,02,03,59,9.70
2010,09,02,04,00,9.70
2010,09,02,04,01,9.70
2010,09,02,04,02,9.60
2010,09,02,04,03,9.60
2010,09,02,04,04,9.60
2010,09,02,04,05,9.60
2010,09,02,04,06,9.60
2010,09,02,04,07,9.60
2010,09,02,04,08,9.60
2010,09,02,04,09,9.60
2010,09,02,04,10,9.60
2010,09,02,04,11,9.70
2010,09,02,04,12,9.70
2010,09,02,04,13,9.70
2010,09,02,04,14,9.60
2010,09,02,04,15,9.60
2010,09,02,04,16,9.60
2010,09,02,04,17,9.60
2010,09,02,04,18,9.60
2010,09,02,04,19,9.60
2010,09,02,04,20,9.60
2010,09,02,04,21,9.60
2010,09,02,04,22,9.60
2010,09,02,04,23,9.60
2010,09,02,04,24,9.60
2010,09,02,04,25,9.60
2010,09,02,04,26,9.60
2010,09,02,04,27,9.60
2010,09,02,04,28,9.60
2010,09,02,04,29,9.60
2010,09,02,04,30,9.60
2010,09,02,04,31,9.60
2010,09,02,04,32,9.60
2010,09,02,04,33,9.60
2010,09,02,04,34,9.60
2010,09,02,04,35,9.60
2010,09,02,04,36,9.60
2010,09,02,04,37,9.60
2010,09,02,04,38,9.60
2010,09,02,04,39,9.60
2010,09,02,04,40,9.60
2010,09,02,04,41,9.60
2010,09,02,04,42,9.60
2010,09,02,04,43,9.60
2010,09,02,04,44,9.60
2010,09,02,04,45,9.50
2010,09,02,04,46,9.50
2010,09,02,04,47,9.50
2010,09,02,04,48,9.50
2010,09,02,04,49,9.50
2010,09,02,04,50,9.50
2010,09,02,04,51,9.40
2010,09,02,04,52,9.50
2010,09,02,04,53,9.50
2010,09,02,04,54,9.50
2010,09,02,04,55,9.50
2010,09,02,04,56,9.50
2010,09,02,04,57,9.50
2010,09,02,04,58,9.50
2010,09,02,04,59,9.50
2010,09,02,05,00,9.50
2010,09,02,05,01,9.50
2010,09,02,05,02,9.50
2010,09,02,05,03,9.40
2010,09,02,05,04,9.40
2010,09,02,05,05,9.40
2010,09,02,05,06,9.40
2010,09,02,05,07,9.40
2010,09,02,05,08,9.40
2010,09,02,05,09,9.40
2010,09,02,05,10,9.40
2010,09,02,05,11,9.40
2010,09,02,05,12,9.40
2010,09,02,05,13,9.40
2010,09,02,05,14,9.30
2010,09,02,05,15,9.30
2010,09,02,05,16,9.30
2010,09,02,05,17,9.30
2010,09,02,05,18,9.30
2010,09,02,05,19,9.30
2010,09,02,05,20,9.30
2010,09,02,05,21,9.30
2010,09,02,05,22,9.30
2010,09,02,05,23,9.20
2010,09,02,05,24,9.20
2010,09,02,05,25,9.30
2010,09,02,05,26,9.30
2010,09,02,05,27,9.30
2010,09,02,05,28,9.30
2010,09,02,05,29,9.30
2010,09,02,05,30,9.30
2010,09,02,05,31,9.30
2010,09,02,05,32,9.30
2010,09,02,05,33,9.20
2010,09,02,05,34,9.20
2010,09,02,05,35,9.20
2010,09,02,05,36,9.20
2010,09,02,05,37,9.20
2010,09,02,05,38,9.20
2010,09,02,05,39,9.20
2010,09,02,05,40,9.10
2010,09,02,05,41,9.10
2010,09,02,05,42,9.10
2010,09,02,05,43,9.10
2010,09,02,05,44,9.00
2010,09,02,05,45,9.00
2010,09,02,05,46,9.00
2010,09,02,05,47,9.00
2010,09,02,05,48,9.00
2010,09,02,05,49,9.00
2010,09,02,05,50,9.10
2010,09,02,05,51,9.10
2010,09,02,05,52,9.10
2010,09,02,05,53,9.10
2010,09,02,05,54,9.10
2010,09,02,05,55,9.10
2010,09,02,05,56,9.10
2010,09,02,05,57,9.10
2010,09,02,05,58,9.10
2010,09,02,05,59,9.10
2010,09,02,06,00,9.10
2010,09,02,06,01,9.10
2010,09,02,06,02,9.10
2010,09,02,06,03,9.00
2010,09,02,06,04,9.00
2010,09,02,06,05,9.00
2010,09,02,06,06,9.00
2010,09,02,06,07,9.00
2010,09,02,06,08,9.00
2010,09,02,06,09,9.00
2010,09,02,06,10,9.00
2010,09,02,06,11,8.90
2010,09,02,06,12,8.90
2010,09,02,06,13,8.90
2010,09,02,06,14,8.90
2010,09,02,06,15,8.90
2010,09,02,06,16,8.90
2010,09,02,06,17,8.90
2010,09,02,06,18,9.00
2010,09,02,06,19,9.00
2010,09,02,06,20,9.00
2010,09,02,06,21,9.00
2010,09,02,06,22,9.00
2010,09,02,06,23,9.00
2010,09,02,06,24,8.90
2010,09,02,06,25,8.90
2010,09,02,06,26,8.90
2010,09,02,06,27,8.90
2010,09,02,06,28,8.90
2010,09,02,06,29,8.90
2010,09,02,06,30,8.90
2010,09,02,06,31,8.90
2010,09,02,06,32,8.90
2010,09,02,06,33,8.90
2010,09,02,06,34,8.90
2010,09,02,06,35,8.90
2010,09,02,06,36,8.90
2010,09,02,06,37,8.90
2010,09,02,06,38,8.90
2010,09,02,06,39,8.90
2010,09,02,06,40,8.90
2010,09,02,06,41,8.90
2010,09,02,06,42,8.90
2010,09,02,06,43,8.90
2010,09,02,06,44,8.90
2010,09,02,06,45,8.90
2010,09,02,06,46,9.00
2010,09,02,06,47,9.00
2010,09,02,06,48,9.00
2010,09,02,06,49,9.00
2010,09,02,06,50,9.00
2010,09,02,06,51,9.00
2010,09,02,06,52,9.00
2010,09,02,06,53,9.00
2010,09,02,06,54,9.00
2010,09,02,06,55,9.00
2010,09,02,06,56,9.00
2010,09,02,06,57,9.00
2010,09,02,06,58,9.10
2010,09,02,06,59,9.10
2010,09,02,07,00,9.10
2010,09,02,07,01,9.10
2010,09,02,07,02,9.20
2010,09,02,07,03,9.20
2010,09,02,07,04,9.20
2010,09,02,07,05,9.30
2010,09,02,07,06,9.30
2010,09,02,07,07,9.30
2010,09,02,07,08,9.30
2010,09,02,07,09,9.30
2010,09,02,07,10,9.40
2010,09,02,07,11,9.40
2010,09,02,07,12,9.50
2010,09,02,07,13,9.50
2010,09,02,07,14,9.50
2010,09,02,07,15,9.60
2010,09,02,07,16,9.60
2010,09,02,07,17,9.60
2010,09,02,07,18,9.70
2010,09,02,07,19,9.70
2010,09,02,07,20,9.70
2010,09,02,07,21,9.80
2010,09,02,07,22,9.80
2010,09,02,07,23,9.90
2010,09,02,07,24,9.90
2010,09,02,07,25,10.00
2010,09,02,07,26,10.00
2010,09,02,07,27,10.00
2010,09,02,07,28,10.10
2010,09,02,07,29,10.10
2010,09,02,07,30,10.20
2010,09,02,07,31,10.20
2010,09,02,07,32,10.30
2010,09,02,07,33,10.40
2010,09,02,07,34,10.40
2010,09,02,07,35,10.50
2010,09,02,07,36,10.50
2010,09,02,07,37,10.60
2010,09,02,07,38,10.70
2010,09,02,07,39,10.80
2010,09,02,07,40,10.90
2010,09,02,07,41,11.00
2010,09,02,07,42,11.10
2010,09,02,07,43,11.10
2010,09,02,07,44,11.20
2010,09,02,07,45,11.20
2010,09,02,07,46,11.20
2010,09,02,07,47,11.30
2010,09,02,07,48,11.30
2010,09,02,07,49,11.30
2010,09,02,07,50,11.40
2010,09,02,07,51,11.50
2010,09,02,07,52,11.60
2010,09,02,07,53,11.70
2010,09,02,07,54,11.90
2010,09,02,07,55,12.00
2010,09,02,07,56,12.20
2010,09,02,07,57,12.30
2010,09,02,07,58,12.40
2010,09,02,07,59,12.50
2010,09,02,08,00,12.60
2010,09,02,08,01,12.80
2010,09,02,08,02,12.90
2010,09,02,08,03,13.00
2010,09,02,08,04,13.20
2010,09,02,08,05,13.30
2010,09,02,08,06,13.40
2010,09,02,08,07,13.50
2010,09,02,08,08,13.60
2010,09,02,08,09,13.70
2010,09,02,08,10,13.80
2010,09,02,08,11,13.80
2010,09,02,08,12,13.90
2010,09,02,08,13,14.00
2010,09,02,08,14,14.10
2010,09,02,08,15,14.20
2010,09,02,08,16,14.20
2010,09,02,08,17,14.30
2010,09,02,08,18,14.30
2010,09,02,08,19,14.40
2010,09,02,08,20,14.50
2010,09,02,08,21,14.50
2010,09,02,08,22,14.60
2010,09,02,08,23,14.60
2010,09,02,08,24,14.70
2010,09,02,08,25,14.80
2010,09,02,08,26,14.80
2010,09,02,08,27,14.90
2010,09,02,08,28,15.00
2010,09,02,08,29,15.00
2010,09,02,08,30,15.00
2010,09,02,08,31,15.00
2010,09,02,08,32,15.00
2010,09,02,08,33,15.00
2010,09,02,08,34,15.00
2010,09,02,08,35,15.00
2010,09,02,08,36,15.00
2010,09,02,08,37,15.00
2010,09,02,08,38,15.00
2010,09,02,08,39,15.00
2010,09,02,08,40,15.00
2010,09,02,08,41,15.00
2010,09,02,08,42,15.00
2010,09,02,08,43,15.00
2010,09,02,08,44,15.00
2010,09,02,08,45,15.00
2010,09,02,08,46,15.00
2010,09,02,08,47,15.00
2010,09,02,08,48,15.10
2010,09,02,08,49,15.20
2010,09,02,08,50,15.30
2010,09,02,08,51,15.30
2010,09,02,08,52,15.40
2010,09,02,08,53,15.50
2010,09,02,08,54,15.60
2010,09,02,08,55,15.60
2010,09,02,08,56,15.70
2010,09,02,08,57,15.70
2010,09,02,08,58,15.80
2010,09,02,08,59,15.80
2010,09,02,09,00,15.80
2010,09,02,09,01,15.90
2010,09,02,09,02,15.90
2010,09,02,09,03,15.80
2010,09,02,09,04,15.80
2010,09,02,09,05,15.70
2010,09,02,09,06,15.70
2010,09,02,09,07,15.70
2010,09,02,09,08,15.70
2010,09,02,09,09,15.60
2010,09,02,09,10,15.50
2010,09,02,09,11,15.50
2010,09,02,09,12,15.40
2010,09,02,09,13,15.40
2010,09,02,09,14,15.30
2010,09,02,09,15,15.20
2010,09,02,09,16,15.10
2010,09,02,09,17,15.10
2010,09,02,09,18,15.00
2010,09,02,09,19,15.00
2010,09,02,09,20,15.00
2010,09,02,09,21,15.00
2010,09,02,09,22,15.00
2010,09,02,09,23,15.00
2010,09,02,09,24,15.00
2010,09,02,09,25,15.00
2010,09,02,09,26,15.00
2010,09,02,09,27,15.10
2010,09,02,09,28,15.20
2010,09,02,09,29,15.20
2010,09,02,09,30,15.20
2010,09,02,09,31,15.30
2010,09,02,09,32,15.30
2010,09,02,09,33,15.30
2010,09,02,09,34,15.40
2010,09,02,09,35,15.40
2010,09,02,09,36,15.50
2010,09,02,09,37,15.50
2010,09,02,09,38,15.60
2010,09,02,09,39,15.60
2010,09,02,09,40,15.60
2010,09,02,09,41,15.60
2010,09,02,09,42,15.60
2010,09,02,09,43,15.60
2010,09,02,09,44,15.60
2010,09,02,09,45,15.60
2010,09,02,09,46,15.60
2010,09,02,09,47,15.70
2010,09,02,09,48,15.70
2010,09,02,09,49,15.80
2010,09,02,09,50,15.80
2010,09,02,09,51,15.90
2010,09,02,09,52,16.00
2010,09,02,09,53,16.00
2010,09,02,09,54,16.10
2010,09,02,09,55,16.20
2010,09,02,09,56,16.20
2010,09,02,09,57,16.30
2010,09,02,09,58,16.30
2010,09,02,09,59,16.40
2010,09,02,10,00,16.40
2010,09,02,10,01,16.50
2010,09,02,10,02,16.50
2010,09,02,10,03,16.60
2010,09,02,10,04,16.70
2010,09,02,10,05,16.80
2010,09,02,10,06,16.80
2010,09,02,10,07,16.90
2010,09,02,10,08,16.90
2010,09,02,10,09,16.90
2010,09,02,10,10,16.90
2010,09,02,10,11,16.80
2010,09,02,10,12,16.80
2010,09,02,10,13,16.80
2010,09,02,10,14,16.80
2010,09,02,10,15,16.90
2010,09,02,10,16,16.90
2010,09,02,10,17,16.90
2010,09,02,10,18,16.90
2010,09,02,10,19,16.80
2010,09,02,10,20,16.70
2010,09,02,10,21,16.70
2010,09,02,10,22,16.60
2010,09,02,10,23,16.50
2010,09,02,10,24,16.50
2010,09,02,10,25,16.40
2010,09,02,10,26,16.40
2010,09,02,10,27,16.40
2010,09,02,10,28,16.40
2010,09,02,10,29,16.40
2010,09,02,10,30,16.30
2010,09,02,10,31,16.30
2010,09,02,10,32,16.30
2010,09,02,10,33,16.30
2010,09,02,10,34,16.30
2010,09,02,10,35,16.30
2010,09,02,10,36,16.40
2010,09,02,10,37,16.40
2010,09,02,10,38,16.50
2010,09,02,10,39,16.50
2010,09,02,10,40,16.60
2010,09,02,10,41,16.60
2010,09,02,10,42,16.50
2010,09,02,10,43,16.50
2010,09,02,10,44,16.40
2010,09,02,10,45,16.30
2010,09,02,10,46,16.30
2010,09,02,10,47,16.30
2010,09,02,10,48,16.30
2010,09,02,10,49,16.30
2010,09,02,10,50,16.30
2010,09,02,10,51,16.40
2010,09,02,10,52,16.40
2010,09,02,10,53,16.40
2010,09,02,10,54,16.40
2010,09,02,10,55,16.40
2010,09,02,10,56,16.40
2010,09,02,10,57,16.50
2010,09,02,10,58,16.50
2010,09,02,10,59,16.60
2010,09,02,11,00,16.70
2010,09,02,11,01,16.80
2010,09,02,11,02,16.90
2010,09,02,11,03,17.00
2010,09,02,11,04,17.00
2010,09,02,11,05,17.00
2010,09,02,11,06,17.10
2010,09,02,11,07,17.10
2010,09,02,11,08,17.10
2010,09,02,11,09,17.10
2010,09,02,11,10,17.20
2010,09,02,11,11,17.20
2010,09,02,11,12,17.20
2010,09,02,11,13,17.20
2010,09,02,11,14,17.20
2010,09,02,11,15,17.10
2010,09,02,11,16,17.10
2010,09,02,11,17,17.10
2010,09,02,11,18,17.10
2010,09,02,11,19,17.00
2010,09,02,11,20,17.00
2010,09,02,11,21,17.00
2010,09,02,11,22,17.00
2010,09,02,11,23,17.00
2010,09,02,11,24,17.10
2010,09,02,11,25,17.20
2010,09,02,11,26,17.20
2010,09,02,11,27,17.30
2010,09,02,11,28,17.30
2010,09,02,11,29,17.40
2010,09,02,11,30,17.40
2010,09,02,11,31,17.50
2010,09,02,11,32,17.60
2010,09,02,11,33,17.60
2010,09,02,11,34,17.60
2010,09,02,11,35,17.50
2010,09,02,11,36,17.40
2010,09,02,11,37,17.40
2010,09,02,11,38,17.30
2010,09,02,11,39,17.30
2010,09,02,11,40,17.20
2010,09,02,11,41,17.20
2010,09,02,11,42,17.20
2010,09,02,11,43,17.30
2010,09,02,11,44,17.30
2010,09,02,11,45,17.30
2010,09,02,11,46,17.20
2010,09,02,11,47,17.20
2010,09,02,11,48,17.20
2010,09,02,11,49,17.10
2010,09,02,11,50,17.10
2010,09,02,11,51,17.00
2010,09,02,11,52,16.90
2010,09,02,11,53,16.90
2010,09,02,11,54,16.90
2010,09,02,11,55,16.80
2010,09,02,11,56,16.80
2010,09,02,11,57,16.80
2010,09,02,11,58,16.80
2010,09,02,11,59,16.80
2010,09,02,12,00,16.80
2010,09,02,12,01,16.80
2010,09,02,12,02,16.70
2010,09,02,12,03,16.70
2010,09,02,12,04,16.60
2010,09,02,12,05,16.60
2010,09,02,12,06,16.60
2010,09,02,12,07,16.60
2010,09,02,12,08,16.60
2010,09,02,12,09,16.60
2010,09,02,12,10,16.60
2010,09,02,12,11,16.70
2010,09,02,12,12,16.70
2010,09,02,12,13,16.70
2010,09,02,12,14,16.70
2010,09,02,12,15,16.70
2010,09,02,12,16,16.80
2010,09,02,12,17,16.80
2010,09,02,12,18,16.80
2010,09,02,12,19,16.80
2010,09,02,12,20,16.90
2010,09,02,12,21,16.90
2010,09,02,12,22,16.90
2010,09,02,12,23,17.00
2010,09,02,12,24,16.90
2010,09,02,12,25,16.90
2010,09,02,12,26,17.00
2010,09,02,12,27,17.00
2010,09,02,12,28,17.00
2010,09,02,12,29,17.00
2010,09,02,12,30,17.10
2010,09,02,12,31,17.10
2010,09,02,12,32,17.10
2010,09,02,12,33,17.10
2010,09,02,12,34,17.10
2010,09,02,12,35,17.20
2010,09,02,12,36,17.20
2010,09,02,12,37,17.30
2010,09,02,12,38,17.30
2010,09,02,12,39,17.20
2010,09,02,12,40,17.20
2010,09,02,12,41,17.10
2010,09,02,12,42,17.10
2010,09,02,12,43,17.10
2010,09,02,12,44,17.10
2010,09,02,12,45,17.10
2010,09,02,12,46,17.20
2010,09,02,12,47,17.20
2010,09,02,12,48,17.30
2010,09,02,12,49,17.30
2010,09,02,12,50,17.40
2010,09,02,12,51,17.40
2010,09,02,12,52,17.40
2010,09,02,12,53,17.50
2010,09,02,12,54,17.50
2010,09,02,12,55,17.50
2010,09,02,12,56,17.60
2010,09,02,12,57,17.60
2010,09,02,12,58,17.60
2010,09,02,12,59,17.70
2010,09,02,13,00,17.70
2010,09,02,13,01,17.70
2010,09,02,13,02,17.70
2010,09,02,13,03,17.80
2010,09,02,13,04,17.80
2010,09,02,13,05,17.80
2010,09,02,13,06,17.80
2010,09,02,13,07,17.80
2010,09,02,13,08,17.80
2010,09,02,13,09,17.80
2010,09,02,13,10,17.90
2010,09,02,13,11,18.00
2010,09,02,13,12,18.10
2010,09,02,13,13,18.10
2010,09,02,13,14,18.20
2010,09,02,13,15,18.30
2010,09,02,13,16,18.30
2010,09,02,13,17,18.40
2010,09,02,13,18,18.40
2010,09,02,13,19,18.40
2010,09,02,13,20,18.40
2010,09,02,13,21,18.40
2010,09,02,13,22,18.50
2010,09,02,13,23,18.60
2010,09,02,13,24,18.70
2010,09,02,13,25,18.80
2010,09,02,13,26,18.80
2010,09,02,13,27,18.90
2010,09,02,13,28,18.80
2010,09,02,13,29,18.80
2010,09,02,13,30,18.70
2010,09,02,13,31,18.70
2010,09,02,13,32,18.60
2010,09,02,13,33,18.60
2010,09,02,13,34,18.60
2010,09,02,13,35,18.60
2010,09,02,13,36,18.60
2010,09,02,13,37,18.60
2010,09,02,13,38,18.70
2010,09,02,13,39,18.80
2010,09,02,13,40,18.80
2010,09,02,13,41,18.80
2010,09,02,13,42,18.90
2010,09,02,13,43,18.80
2010,09,02,13,44,18.80
2010,09,02,13,45,18.70
2010,09,02,13,46,18.70
2010,09,02,13,47,18.70
2010,09,02,13,48,18.70
2010,09,02,13,49,18.70
2010,09,02,13,50,18.80
2010,09,02,13,51,18.80
2010,09,02,13,52,18.80
2010,09,02,13,53,18.80
2010,09,02,13,54,18.80
2010,09,02,13,55,18.90
2010,09,02,13,56,18.90
2010,09,02,13,57,18.90
2010,09,02,13,58,19.00
2010,09,02,13,59,19.10
2010,09,02,14,00,19.20
2010,09,02,14,01,19.30
2010,09,02,14,02,19.40
2010,09,02,14,03,19.50
2010,09,02,14,04,19.60
2010,09,02,14,05,19.60
2010,09,02,14,06,19.70
2010,09,02,14,07,19.70
2010,09,02,14,08,19.80
2010,09,02,14,09,19.80
2010,09,02,14,10,19.80
2010,09,02,14,11,19.70
2010,09,02,14,12,19.70
2010,09,02,14,13,19.70
2010,09,02,14,14,19.80
2010,09,02,14,15,19.90
2010,09,02,14,16,19.90
2010,09,02,14,17,20.10
2010,09,02,14,18,20.10
2010,09,02,14,19,20.20
2010,09,02,14,20,20.10
2010,09,02,14,21,20.10
2010,09,02,14,22,20.10
2010,09,02,14,23,20.10
2010,09,02,14,24,20.10
2010,09,02,14,25,20.10
2010,09,02,14,26,20.10
2010,09,02,14,27,20.00
2010,09,02,14,28,20.00
2010,09,02,14,29,20.00
2010,09,02,14,30,20.00
2010,09,02,14,31,20.00
2010,09,02,14,32,19.90
2010,09,02,14,33,19.80
2010,09,02,14,34,19.70
2010,09,02,14,35,19.60
2010,09,02,14,36,19.50
2010,09,02,14,37,19.30
2010,09,02,14,38,19.30
2010,09,02,14,39,19.30
2010,09,02,14,40,19.30
2010,09,02,14,41,19.20
2010,09,02,14,42,19.30
2010,09,02,14,43,19.30
2010,09,02,14,44,19.30
2010,09,02,14,45,19.30
2010,09,02,14,46,19.30
2010,09,02,14,47,19.30
2010,09,02,14,48,19.40
2010,09,02,14,49,19.40
2010,09,02,14,50,19.40
2010,09,02,14,51,19.50
2010,09,02,14,52,19.50
2010,09,02,14,53,19.50
2010,09,02,14,54,19.60
2010,09,02,14,55,19.60
2010,09,02,14,56,19.60
2010,09,02,14,57,19.60
2010,09,02,14,58,19.60
2010,09,02,14,59,19.70
2010,09,02,15,00,19.70
2010,09,02,15,01,19.70
2010,09,02,15,02,19.70
2010,09,02,15,03,19.70
2010,09,02,15,04,19.80
2010,09,02,15,05,19.70
2010,09,02,15,06,19.70
2010,09,02,15,07,19.70
2010,09,02,15,08,19.60
2010,09,02,15,09,19.70
2010,09,02,15,10,19.70
2010,09,02,15,11,19.70
2010,09,02,15,12,19.80
2010,09,02,15,13,19.80
2010,09,02,15,14,19.90
2010,09,02,15,15,19.90
2010,09,02,15,16,20.00
2010,09,02,15,17,20.10
2010,09,02,15,18,20.20
2010,09,02,15,19,20.30
2010,09,02,15,20,20.30
2010,09,02,15,21,20.40
2010,09,02,15,22,20.50
2010,09,02,15,23,20.60
2010,09,02,15,24,20.60
2010,09,02,15,25,20.60
2010,09,02,15,26,20.70
2010,09,02,15,27,20.70
2010,09,02,15,28,20.70
2010,09,02,15,29,20.80
2010,09,02,15,30,20.80
2010,09,02,15,31,20.80
2010,09,02,15,32,20.80
2010,09,02,15,33,20.70
2010,09,02,15,34,20.70
2010,09,02,15,35,20.60
2010,09,02,15,36,20.50
2010,09,02,15,37,20.40
2010,09,02,15,38,20.40
2010,09,02,15,39,20.30
2010,09,02,15,40,20.30
2010,09,02,15,41,20.20
2010,09,02,15,42,20.20
2010,09,02,15,43,20.20
2010,09,02,15,44,20.20
2010,09,02,15,45,20.20
2010,09,02,15,46,20.10
2010,09,02,15,47,20.10
2010,09,02,15,48,20.10
2010,09,02,15,49,20.10
2010,09,02,15,50,20.00
2010,09,02,15,51,20.00
2010,09,02,15,52,19.90
2010,09,02,15,53,19.90
2010,09,02,15,54,19.90
2010,09,02,15,55,19.80
2010,09,02,15,56,19.80
2010,09,02,15,57,19.80
2010,09,02,15,58,19.80
2010,09,02,15,59,19.70
2010,09,02,16,00,19.70
2010,09,02,16,01,19.70
2010,09,02,16,02,19.70
2010,09,02,16,03,19.70
2010,09,02,16,04,19.60
2010,09,02,16,05,19.60
2010,09,02,16,06,19.60
2010,09,02,16,07,19.60
2010,09,02,16,08,19.50
2010,09,02,16,09,19.50
2010,09,02,16,10,19.50
2010,09,02,16,11,19.60
2010,09,02,16,12,19.60
2010,09,02,16,13,19.60
2010,09,02,16,14,19.60
2010,09,02,16,15,19.60
2010,09,02,16,16,19.60
2010,09,02,16,17,19.60
2010,09,02,16,18,19.60
2010,09,02,16,19,19.70
2010,09,02,16,20,19.70
2010,09,02,16,21,19.70
2010,09,02,16,22,19.70
2010,09,02,16,23,19.70
2010,09,02,16,24,19.70
2010,09,02,16,25,19.70
2010,09,02,16,26,19.70
2010,09,02,16,27,19.80
2010,09,02,16,28,19.80
2010,09,02,16,29,19.80
2010,09,02,16,30,19.80
2010,09,02,16,31,19.80
2010,09,02,16,32,19.90
2010,09,02,16,33,19.90
2010,09,02,16,34,19.90
2010,09,02,16,35,19.90
2010,09,02,16,36,19.90
2010,09,02,16,37,19.90
2010,09,02,16,38,19.90
2010,09,02,16,39,19.90
2010,09,02,16,40,19.90
2010,09,02,16,41,19.90
2010,09,02,16,42,20.00
2010,09,02,16,43,20.00
2010,09,02,16,44,20.00
2010,09,02,16,45,20.10
2010,09,02,16,46,20.10
2010,09,02,16,47,20.10
2010,09,02,16,48,20.10
2010,09,02,16,49,20.10
2010,09,02,16,50,20.10
2010,09,02,16,51,20.10
2010,09,02,16,52,20.10
2010,09,02,16,53,20.00
2010,09,02,16,54,20.00
2010,09,02,16,55,20.00
2010,09,02,16,56,19.90
2010,09,02,16,57,19.90
2010,09,02,16,58,19.80
2010,09,02,16,59,19.70
2010,09,02,17,00,19.60
2010,09,02,17,01,19.50
2010,09,02,17,02,19.50
2010,09,02,17,03,19.40
2010,09,02,17,04,19.40
2010,09,02,17,05,19.40
2010,09,02,17,06,19.30
2010,09,02,17,07,19.30
2010,09,02,17,08,19.30
2010,09,02,17,09,19.30
2010,09,02,17,10,19.30
2010,09,02,17,11,19.30
2010,09,02,17,12,19.30
2010,09,02,17,13,19.40
2010,09,02,17,14,19.50
2010,09,02,17,15,19.60
2010,09,02,17,16,19.60
2010,09,02,17,17,19.70
2010,09,02,17,18,19.70
2010,09,02,17,19,19.70
2010,09,02,17,20,19.70
2010,09,02,17,21,19.80
2010,09,02,17,22,19.80
2010,09,02,17,23,19.80
2010,09,02,17,24,19.80
2010,09,02,17,25,19.80
2010,09,02,17,26,19.80
2010,09,02,17,27,19.70
2010,09,02,17,28,19.70
2010,09,02,17,29,19.70
2010,09,02,17,30,19.80